Blytheville, AR

4:34 PM CST on February 23, 2017 (GMT -0600)
Blytheville Municipal

Weather History for KHKA - December, 2012

Change the Weather History Date:

Monday, December 17, 2012

  Actual Average Record
Temperature  
Mean Temperature 49 °F -  
Max Temperature 59 °F 47 °F 75 °F (2016)
Min Temperature 37 °F 31 °F 7 °F (1943)
Degree Days  
Heating Degree Days 16    
Moisture  
Dew Point 50 °F    
Average Humidity 91    
Maximum Humidity 97    
Minimum Humidity 69    
Precipitation  
Precipitation 0.00 in - - ()
Sea Level Pressure  
Sea Level Pressure 29.72 in    
Wind  
Wind Speed 9 mph (SW)    
Max Wind Speed 21 mph    
Max Gust Speed 29 mph    
Visibility 10 miles    
Events      
Averages and records for this station are not official NWS values.
T = Trace of Precipitation, MM = Missing Value Source: NWS Daily Summary

Daily Weather History Graph

Daily Weather History Graph

Search for Another Location

Airport or City:

Trip Planner

Search our weather history database for the weather conditions in past years. The results will help you decide how hot, cold, wet, or windy it might be!

Date:

Astronomy

Dec. 17, 2012 Rise Set
Actual Time 7:04 AM CST 4:47 PM CST
Civil Twilight 6:35 AM CST 5:16 PM CST
Nautical Twilight 6:03 AM CST 5:48 PM CST
Astronomical Twilight 5:32 AM CST 6:19 PM CST
Moon 10:20 AM CST (12/17) 10:00 PM CST (12/17)
Length of Visible Light 10h 40m
Length of Day
9h 43m
Waxing Crescent, 25% of the Moon is Illuminated
Dec 17
Waxing Crescent
Dec 19
First Quarter
Dec 28
Full
Jan 4
Last Quarter
Jan 11
New

Hourly Weather History & Observations

Time (CST) Temp. Windchill Dew Point Humidity Pressure Visibility Wind Dir Wind Speed Gust Speed Precip Events Conditions
12:18 AM 57.2 °F - 55.4 °F 94% 29.72 in 10.0 mi SSW 8.1 mph - N/A   Scattered Clouds
12:25 AM 57.2 °F - 55.4 °F 94% 29.72 in 10.0 mi SSW 6.9 mph - N/A   Mostly Cloudy
12:53 AM 55.9 °F - 55.0 °F 97% 29.72 in 10.0 mi SSW 8.1 mph - N/A   Mostly Cloudy
1:07 AM 55.4 °F - 53.6 °F 94% 29.72 in 10.0 mi SSW 6.9 mph - N/A   Scattered Clouds
1:53 AM 57.0 °F - 55.0 °F 93% 29.72 in 10.0 mi SSW 6.9 mph - N/A   Mostly Cloudy
2:48 AM 57.2 °F - 55.4 °F 94% 29.71 in 10.0 mi SSW 11.5 mph - N/A   Scattered Clouds
2:53 AM 57.0 °F - 55.0 °F 93% 29.72 in 10.0 mi SW 11.5 mph - N/A   Partly Cloudy
3:20 AM 57.2 °F - 55.4 °F 94% 29.71 in 10.0 mi SW 10.4 mph - N/A   Mostly Cloudy
3:34 AM 57.2 °F - 55.4 °F 94% 29.71 in 10.0 mi SW 9.2 mph - N/A   Mostly Cloudy
3:41 AM 57.2 °F - 55.4 °F 94% 29.71 in 10.0 mi SW 9.2 mph - N/A   Mostly Cloudy
3:50 AM 57.2 °F - 55.4 °F 94% 29.70 in 10.0 mi SW 9.2 mph - N/A   Mostly Cloudy
3:53 AM 57.0 °F - 55.0 °F 93% 29.70 in 10.0 mi SSW 9.2 mph - N/A   Mostly Cloudy
4:08 AM 57.2 °F - 55.4 °F 94% 29.70 in 10.0 mi SW 8.1 mph - N/A   Mostly Cloudy
4:53 AM 55.9 °F - 54.0 °F 93% 29.68 in 10.0 mi SSW 6.9 mph - N/A   Overcast
5:48 AM 55.4 °F - 53.6 °F 94% 29.68 in 10.0 mi SSW 6.9 mph - N/A   Overcast
5:53 AM 55.9 °F - 54.0 °F 93% 29.68 in 10.0 mi SSW 6.9 mph - N/A   Mostly Cloudy
6:16 AM 55.4 °F - 53.6 °F 94% 29.67 in 10.0 mi South 6.9 mph - N/A   Mostly Cloudy
6:53 AM 55.0 °F - 53.1 °F 93% 29.67 in 10.0 mi South 10.4 mph - N/A   Mostly Cloudy
7:34 AM 55.4 °F - 53.6 °F 94% 29.67 in 10.0 mi SSW 11.5 mph - N/A   Mostly Cloudy
12:53 PM 59.0 °F - 48.9 °F 69% 29.66 in 10.0 mi WSW 16.1 mph 25.3 mph N/A   Mostly Cloudy
1:53 PM 54.0 °F - 46.9 °F 77% 29.66 in 10.0 mi WNW 17.3 mph - N/A   Partly Cloudy
2:16 PM 48.2 °F - 44.6 °F 87% 29.68 in 10.0 mi WNW 20.7 mph 28.8 mph N/A   Mostly Cloudy
2:53 PM 46.0 °F 38.5 °F 41.0 °F 83% 29.71 in 10.0 mi WNW 19.6 mph 27.6 mph N/A   Overcast
6:53 PM 41.0 °F 38.0 °F 37.9 °F 89% 29.79 in 10.0 mi West 4.6 mph - N/A   Clear
7:53 PM 42.1 °F - 37.9 °F 85% 29.80 in 10.0 mi Calm Calm - N/A   Clear
8:53 PM 41.0 °F - 37.0 °F 86% 29.81 in 10.0 mi Calm Calm - N/A   Clear
9:53 PM 39.0 °F 34.8 °F 37.0 °F 93% 29.84 in 8.0 mi SW 5.8 mph - N/A   Clear
10:53 PM 39.9 °F 37.8 °F 37.9 °F 93% 29.86 in 8.0 mi WSW 3.5 mph - N/A   Clear
11:53 PM 37.9 °F 35.5 °F 37.0 °F 97% 29.86 in 6.0 mi SW 3.5 mph - N/A   Clear